RH
39 39 35 29 26 23 20 22 25 16 11 13 17 15 13 12 13 12 12 13 13 13 14 14 17 18 20 23 25 26 31 34 34 34 38 40 40 40 39 36 35 35 36 35 33
45 44 40 33 31 27 21 19 21 24 15 13 17 16 15 13 14 12 14 14 15 15 14 14 17 17 18 20 21 23 31 31 30 32 34 34 33 33 33 32 33 36 37 38 38
49 46 43 37 34 30 22 19 18 20 21 16 18 17 15 15 16 14 14 14 15 15 16 17 17 18 20 21 22 23 28 29 30 30 30 31 32 31 29 30 35 34 32 36 37
49 47 44 41 38 33 30 22 18 18 19 19 19 17 15 17 17 15 14 15 16 16 16 17 18 18 21 22 24 26 27 28 29 28 27 32 34 35 38 41 41 42 47 48 45
53 48 47 42 39 38 35 29 22 19 18 17 16 17 18 16 15 15 15 17 16 17 18 17 18 20 21 22 22 26 27 31 29 28 32 35 37 38 40 41 43 44 48 47 46
55 51 45 43 44 44 41 35 34 27 25 24 21 20 18 17 16 16 18 18 17 18 19 18 19 21 23 23 23 26 28 33 31 30 31 32 35 37 38 38 41 42 47 47 47
53 50 46 44 43 40 40 36 33 27 24 23 21 18 17 18 18 19 22 22 22 21 21 20 20 21 23 25 26 27 29 32 34 33 34 32 36 38 38 37 38 37 47 50 51
52 49 46 43 40 37 37 36 29 26 23 22 21 19 20 20 21 23 24 25 26 26 24 23 22 21 25 25 26 30 31 32 32 33 32 37 36 39 39 38 37 38 44 49 52
51 48 47 46 41 38 38 33 25 25 24 24 21 19 21 21 23 24 22 25 27 28 27 26 24 23 25 26 26 29 30 31 30 32 32 33 33 38 39 38 36 39 42 48 56
53 49 47 49 44 41 38 30 25 26 26 24 22 21 23 25 27 27 26 26 27 28 28 26 25 26 29 28 28 27 28 30 32 31 33 35 34 36 36 35 34 40 43 50 53
52 51 48 48 45 42 38 33 26 24 24 26 27 29 29 30 30 27 26 28 28 28 29 27 28 28 30 30 30 31 32 32 32 33 36 36 37 39 38 36 33 39 40 50 53
48 51 48 50 45 45 40 34 28 26 28 30 31 37 34 33 29 27 29 28 28 30 27 27 28 29 32 32 32 34 36 37 35 36 38 39 39 42 40 42 35 36 40 45 55
47 47 47 49 46 47 48 38 31 29 27 33 34 37 36 34 33 31 31 30 30 30 28 30 28 29 32 32 34 35 37 38 39 40 43 45 44 49 47 43 43 38 42 42 46
43 45 43 46 48 48 48 44 37 33 33 33 37 37 37 37 35 33 31 31 30 30 28 29 29 30 31 32 34 36 37 39 41 43 47 48 46 47 54 52 45 43 41 44 41
42 40 40 43 46 46 47 43 39 37 45 35 39 37 36 36 32 32 32 31 31 30 29 28 30 31 33 32 35 36 39 42 44 46 50 52 56 49 55 57 51 50 43 43 38
43 42 42 44 47 46 46 44 39 44 48 39 40 38 37 37 32 33 32 31 32 31 32 31 32 34 33 34 36 37 40 45 49 50 56 50 58 52 57 58 59 50 50 45 40
46 47 45 47 46 45 45 42 44 49 38 40 40 39 37 38 35 36 36 35 37 39 40 36 34 34 34 37 38 40 44 50 50 59 52 52 58 53 54 58 57 53 53 50 46
48 46 46 47 45 43 44 44 46 40 41 40 40 36 34 38 39 40 38 38 37 40 42 44 46 37 35 38 40 44 46 54 55 53 51 52 54 49 55 60 57 56 57 54 54
47 47 47 45 43 43 44 52 47 44 43 42 41 38 40 39 39 45 40 39 41 39 42 43 44 38 38 40 42 44 49 50 52 53 59 50 48 59 58 63 66 59 58 57 57
49 47 47 44 43 45 46 50 44 44 45 43 43 38 39 40 45 45 40 38 40 41 44 43 43 39 41 44 44 46 49 57 63 64 67 56 54 56 58 61 66 68 65 61 62
49 47 45 44 47 47 52 50 46 45 46 44 43 42 39 40 44 45 41 40 41 44 45 44 44 44 44 46 46 48 55 58 62 65 68 68 57 53 56 59 62 67 70 65 66
48 46 46 47 49 51 51 48 47 47 47 46 45 43 42 44 44 44 42 43 45 45 48 49 49 47 46 47 47 49 53 59 67 73 67 65 60 56 57 60 64 67 69 67 69
51 50 50 50 53 55 53 51 50 50 49 50 50 48 47 49 47 46 47 47 52 51 56 56 51 61 59 51 53 53 54 58 62 65 69 72 60 60 58 61 63 66 71 74 78
55 56 53 53 54 57 56 55 52 49 51 53 51 51 54 57 53 50 50 50 50 53 58 58 54 61 67 64 59 58 60 60 63 68 65 59 53 59 58 60 63 66 69 73 76
60 63 61 61 61 60 60 58 58 59 58 57 56 56 60 64 63 58 55 55 59 58 55 55 52 55 54 55 58 55 57 62 65 63 65 54 61 57 57 59 62 65 68 70 76
64 64 64 64 64 64 64 65 62 64 65 63 61 63 63 67 68 70 73 64 63 60 57 54 55 55 56 57 58 56 60 62 63 66 63 65 62 65 65 65 66 67 69 72 74
65 66 66 68 67 69 71 70 72 71 70 69 69 72 74 73 71 72 74 66 66 65 63 62 64 62 64 60 64 60 54 59 62 68 71 77 69 68 71 71 71 71 72 74 77